Torna al catalogo

STARLINK-5451

AttivoComunicazioniVLEO
NORAD 54771·PAYLOAD·🇺🇸 United States

Lanciato Dec 17, 2022 da Cape Canaveral Space Force Station

Loading…

Prossimi Passaggi (prossime 24 ore)

TLE

AggiornatoSource: CelesTrak SupGP

Epoca: Sep 15, 2026, 01:22 UTC

1 54771C 22175P   26258.05743056 -.00011121  00000+0 -41928-3 0  2586
2 54771  53.1565 259.4330 0001625  78.9499 344.1173 15.26532634    18

Traccia STARLINK-5451 in tempo reale con AllMySat

Download on the App Store